TimeEST,TemperatureF,Dew PointF,Humidity,Sea Level PressureIn,VisibilityMPH,Wind Direction,Wind SpeedMPH,Gust SpeedMPH,PrecipitationIn,Events,Conditions,WindDirDegrees,DateUTC
12:15 AM,37.9,37.9,100,30.11,5.0,North,-9999.0,-,N/A,,Overcast,0,2013-12-29 05:15:00
12:35 AM,37.8,37.8,100,30.10,5.0,North,-9999.0,-,N/A,,Overcast,0,2013-12-29 05:35:00
12:55 AM,38.3,38.3,100,30.08,1.2,North,-9999.0,-,N/A,,Overcast,0,2013-12-29 05:55:00
1:15 AM,38.3,38.3,100,30.06,2.5,North,-9999.0,-,N/A,,Unknown,0,2013-12-29 06:15:00
1:35 AM,39.2,39.2,100,30.04,2.0,North,-9999.0,-,N/A,,Unknown,0,2013-12-29 06:35:00
1:55 AM,39.2,39.2,100,30.02,4.0,North,-9999.0,-,N/A,,Unknown,0,2013-12-29 06:55:00
2:15 AM,39.7,39.7,100,30.01,3.0,North,-9999.0,-,N/A,,Overcast,0,2013-12-29 07:15:00
2:35 AM,41.0,41.0,100,29.99,3.0,North,-9999.0,-,N/A,,Unknown,0,2013-12-29 07:35:00
2:55 AM,41.9,41.9,100,29.97,2.0,North,-9999.0,-,N/A,,Unknown,0,2013-12-29 07:55:00
3:15 AM,43.5,43.5,100,29.95,2.0,North,-9999.0,-,N/A,,Unknown,0,2013-12-29 08:15:00
3:35 AM,43.3,43.3,100,29.93,1.2,North,-9999.0,-,N/A,,Unknown,0,2013-12-29 08:35:00
3:55 AM,44.6,44.6,100,29.90,1.5,North,-9999.0,-,N/A,,Unknown,0,2013-12-29 08:55:00
4:15 AM,45.3,45.3,100,29.92,4.0,North,-9999.0,-,N/A,Rain,Rain,0,2013-12-29 09:15:00
4:35 AM,44.8,44.8,100,29.90,2.5,North,-9999.0,-,N/A,,Overcast,0,2013-12-29 09:35:00
4:55 AM,44.2,44.2,100,29.89,7.0,North,-9999.0,-,N/A,,Light Drizzle,0,2013-12-29 09:55:00
5:15 AM,43.2,43.2,100,29.87,5.0,North,-9999.0,-,N/A,Rain,Light Rain,0,2013-12-29 10:15:00
5:35 AM,42.8,42.8,100,29.88,1.8,North,-9999.0,-,N/A,,Unknown,0,2013-12-29 10:35:00
5:55 AM,42.8,42.8,100,29.88,1.8,North,-9999.0,-,N/A,,Unknown,0,2013-12-29 10:55:00
6:15 AM,43.7,43.7,100,29.86,1.2,North,-9999.0,-,N/A,,Unknown,0,2013-12-29 11:15:00
6:35 AM,44.6,44.6,100,29.87,2.0,North,-9999.0,-,N/A,,Overcast,0,2013-12-29 11:35:00
6:55 AM,44.1,44.1,100,29.86,2.5,North,-9999.0,-,N/A,,Overcast,0,2013-12-29 11:55:00
7:15 AM,44.4,44.4,100,29.86,3.0,North,-9999.0,-,N/A,Rain,Light Rain,0,2013-12-29 12:15:00
7:35 AM,44.1,44.1,100,29.84,3.0,North,-9999.0,-,N/A,Rain,Light Rain,0,2013-12-29 12:35:00
7:55 AM,44.1,44.1,100,29.84,4.0,North,-9999.0,-,N/A,Rain,Rain,0,2013-12-29 12:55:00
8:15 AM,43.9,43.9,100,29.84,2.5,North,-9999.0,-,N/A,Rain,Light Rain,0,2013-12-29 13:15:00
8:35 AM,43.5,43.5,100,29.84,1.5,North,-9999.0,-,N/A,Rain,Light Rain,0,2013-12-29 13:35:00
8:55 AM,43.3,43.3,100,29.84,2.0,North,-9999.0,-,N/A,Rain,Rain,0,2013-12-29 13:55:00
9:15 AM,43.9,43.9,100,29.83,3.0,North,-9999.0,-,N/A,Rain,Rain,0,2013-12-29 14:15:00
9:35 AM,43.7,43.7,100,29.82,1.5,North,-9999.0,-,N/A,Rain,Light Rain,0,2013-12-29 14:35:00
9:55 AM,44.2,44.2,100,29.82,2.0,North,-9999.0,-,N/A,,Light Drizzle,0,2013-12-29 14:55:00
10:15 AM,44.8,44.8,100,29.83,1.2,North,-9999.0,-,N/A,,Light Drizzle,0,2013-12-29 15:15:00
10:35 AM,45.5,45.5,100,29.81,1.2,North,-9999.0,-,N/A,Rain,Rain,0,2013-12-29 15:35:00
10:55 AM,45.5,45.5,100,29.82,2.0,North,-9999.0,-,N/A,Rain,Light Rain,0,2013-12-29 15:55:00
11:15 AM,46.2,46.2,100,29.82,2.0,North,-9999.0,-,N/A,Rain,Light Rain,0,2013-12-29 16:15:00
11:35 AM,46.4,46.4,100,29.83,3.0,North,-9999.0,-,N/A,,Drizzle,0,2013-12-29 16:35:00
11:55 AM,46.4,46.4,100,29.82,3.0,North,-9999.0,-,N/A,Rain,Light Rain,0,2013-12-29 16:55:00
12:15 PM,46.4,46.4,100,29.82,2.0,North,-9999.0,-,N/A,Rain,Rain,0,2013-12-29 17:15:00
12:35 PM,46.2,46.2,100,29.82,3.0,North,-9999.0,-,N/A,Rain,Light Rain,0,2013-12-29 17:35:00
12:55 PM,45.9,45.9,100,29.82,5.0,North,-9999.0,-,N/A,Rain,Light Rain,0,2013-12-29 17:55:00
1:15 PM,45.5,45.5,100,29.82,5.0,North,-9999.0,-,N/A,Rain,Light Rain,0,2013-12-29 18:15:00
1:35 PM,44.8,44.2,98,29.84,7.0,North,-9999.0,-,N/A,Rain,Rain,0,2013-12-29 18:35:00
1:55 PM,44.2,43.7,98,29.85,7.0,North,-9999.0,-,N/A,,Drizzle,0,2013-12-29 18:55:00
2:15 PM,43.9,43.3,98,29.85,10.0,North,-9999.0,-,N/A,,Overcast,0,2013-12-29 19:15:00
2:35 PM,43.7,42.8,97,29.85,10.0,North,-9999.0,-,N/A,Rain,Light Rain,0,2013-12-29 19:35:00
2:55 PM,43.5,42.4,96,29.87,10.0,North,-9999.0,-,N/A,,Overcast,0,2013-12-29 19:55:00
3:15 PM,43.3,42.1,95,29.87,10.0,North,-9999.0,-,N/A,,Overcast,0,2013-12-29 20:15:00
3:35 PM,43.7,41.9,93,29.88,10.0,North,-9999.0,-,N/A,,Overcast,0,2013-12-29 20:35:00
3:55 PM,43.2,41.9,95,29.88,10.0,North,-9999.0,-,N/A,,Overcast,0,2013-12-29 20:55:00
4:15 PM,43.2,41.9,95,29.89,10.0,North,-9999.0,-,N/A,,Overcast,0,2013-12-29 21:15:00
4:35 PM,43.0,41.5,95,29.89,10.0,North,-9999.0,-,N/A,,Overcast,0,2013-12-29 21:35:00
4:55 PM,42.8,41.9,97,29.90,10.0,North,-9999.0,-,N/A,,Overcast,0,2013-12-29 21:55:00
5:15 PM,42.8,41.9,97,29.91,7.0,North,-9999.0,-,N/A,,Light Drizzle,0,2013-12-29 22:15:00
5:35 PM,42.6,41.9,97,29.92,7.0,North,-9999.0,-,N/A,,Overcast,0,2013-12-29 22:35:00
5:55 PM,42.8,42.4,99,29.93,10.0,North,-9999.0,-,N/A,,Overcast,0,2013-12-29 22:55:00
6:15 PM,42.8,42.3,98,29.94,10.0,North,-9999.0,-,N/A,,Overcast,0,2013-12-29 23:15:00
6:35 PM,42.8,42.1,97,29.94,10.0,North,-9999.0,-,N/A,,Overcast,0,2013-12-29 23:35:00
6:55 PM,42.8,42.1,97,29.96,10.0,North,-9999.0,-,N/A,,Overcast,0,2013-12-29 23:55:00
7:15 PM,42.8,42.1,97,29.96,5.0,North,-9999.0,-,N/A,,Overcast,0,2013-12-30 00:15:00
7:35 PM,42.8,42.1,97,29.97,3.0,North,-9999.0,-,N/A,,Overcast,0,2013-12-30 00:35:00
7:55 PM,42.4,42.3,99,29.97,2.5,North,-9999.0,-,N/A,,Overcast,0,2013-12-30 00:55:00
8:15 PM,42.4,42.4,100,29.98,4.0,North,-9999.0,-,N/A,,Overcast,0,2013-12-30 01:15:00
8:35 PM,42.4,42.4,100,29.98,10.0,North,-9999.0,-,N/A,,Overcast,0,2013-12-30 01:35:00
8:55 PM,42.4,42.4,100,29.99,10.0,North,-9999.0,-,N/A,,Overcast,0,2013-12-30 01:55:00
9:15 PM,42.4,42.3,99,30.00,10.0,North,-9999.0,-,N/A,,Overcast,0,2013-12-30 02:15:00
9:35 PM,42.4,41.9,98,30.01,10.0,North,-9999.0,-,N/A,,Overcast,0,2013-12-30 02:35:00
9:55 PM,42.4,41.0,95,30.02,10.0,North,-9999.0,-,N/A,,Overcast,0,2013-12-30 02:55:00
10:15 PM,42.4,40.1,91,30.02,10.0,North,-9999.0,-,N/A,,Overcast,0,2013-12-30 03:15:00
10:35 PM,42.1,40.1,93,30.01,10.0,North,-9999.0,-,N/A,,Overcast,0,2013-12-30 03:35:00
10:55 PM,41.4,40.1,95,30.01,10.0,North,-9999.0,-,N/A,,Overcast,0,2013-12-30 03:55:00
11:15 PM,40.8,40.3,98,30.01,10.0,North,-9999.0,-,N/A,,Overcast,0,2013-12-30 04:15:00
11:35 PM,40.6,40.5,99,30.01,7.0,North,-9999.0,-,N/A,,Overcast,0,2013-12-30 04:35:00
11:55 PM,40.3,40.3,100,30.00,7.0,North,-9999.0,-,N/A,,Overcast,0,2013-12-30 04:55:00